Location: Dillon
(41.1766°N, 107.0923°W)
Time: 13:41:33
(UTC+00:00)

RS-44 - Pass Details

Date: 29 June 2022
Orbit: 1175 x 1510 km, 82.5° (Epoch: 07 August)

Event Time Altitude Azimuth Distance (km) Brightness Sun altitude
Rises 03:41:49 0° 184° (S) 4,265 ? -9.3°
Reaches altitude 10° 03:44:28 10° 184° (S) 3,341 ? -9.7°
Maximum altitude 03:52:28 87° 97° (E) 1,403 ? -10.7°
Drops below altitude 10° 04:01:08 10° 9° (N) 3,599 ? -11.9°
Sets 04:04:05 0° 9° (N) 4,611 ? -12.3°
